This is the latest recevied weather packets stored in our database for station/object TK5EP-13. If no packets are shown the sender has not sent any weather packets the latest 1 day(s).
| Time | Temp. | Humidity | Pressure | Rain* | Wind** | Luminosity | Snow |
|---|---|---|---|---|---|---|---|
| 1778000966 | 13.33° C | 90% | - | - | 4.92 m/s, 170° | - | - |
| 1778000665 | 13.33° C | 89% | - | - | 4.02 m/s, 177° | - | - |
| 1778000364 | 13.33° C | 89% | - | - | 4.47 m/s, 176° | - | - |
| 1778000060 | 13.33° C | 89% | - | - | 5.81 m/s, 166° | - | - |
| 1777999759 | 13.89° C | 88% | - | - | 5.81 m/s, 166° | - | - |
| 1777999458 | 13.89° C | 88% | - | - | 7.15 m/s, 155° | - | - |
| 1777999158 | 13.89° C | 88% | - | - | 6.71 m/s, 154° | - | - |
| 1777998857 | 13.89° C | 87% | - | - | 4.92 m/s, 153° | - | - |
| 1777998556 | 13.89° C | 86% | - | - | 4.02 m/s, 177° | - | - |
| 1777998255 | 14.44° C | 85% | - | - | 4.47 m/s, 184° | - | - |
| 1777997952 | 14.44° C | 84% | - | - | 5.36 m/s, 186° | - | - |
| 1777997648 | 15° C | 83% | - | - | 3.58 m/s, 184° | - | - |
| 1777997347 | 15.56° C | 83% | - | - | 3.58 m/s, 187° | - | - |
| 1777997046 | 15.56° C | 82% | - | - | 3.58 m/s, 183° | - | - |
| 1777996745 | 15.56° C | 82% | - | - | 4.02 m/s, 180° | - | - |
| 1777996445 | 15.56° C | 81% | - | - | 4.47 m/s, 183° | - | - |
| 1777996141 | 15.56° C | 80% | - | - | 5.36 m/s, 185° | - | - |
| 1777995840 | 15.56° C | 78% | - | - | 4.92 m/s, 187° | - | - |
| 1777995539 | 16.11° C | 76% | - | - | 5.36 m/s, 187° | - | - |
| 1777995239 | 17.22° C | 75% | - | - | 3.58 m/s, 190° | - | - |
| 1777994937 | 17.78° C | 74% | - | - | 3.13 m/s, 184° | - | - |
| 1777994635 | 17.78° C | 73% | - | - | 3.58 m/s, 170° | - | - |
| 1777994335 | 17.78° C | 74% | - | - | 3.58 m/s, 165° | - | - |
| 1777994034 | 17.78° C | 75% | - | - | 3.58 m/s, 186° | - | - |
| 1777993733 | 17.78° C | 75% | - | - | 2.68 m/s, 184° | - | - |
* Rain since midnight (hover to see other rain measurements)
** Current wind speed in m/s (hover to see current wind gust speed)